Location: ?????????
(55.6553°N, 38.9075°E)
Time: 22:20:03
(UTC+00:00)

Meteor 1-4 Rocket - Pass Details

Date: 18 October 2019
Orbit: 450 x 503 km, 81.2° (Epoch: 17 November)

Event Time Altitude Azimuth Distance (km) Brightness Sun altitude
Rises 02:52:33 0° 203° (SSW) 2,481 5.9 -10.2°
Reaches altitude 10° 02:54:39 10° 208° (SSW) 1,604 4.9 -9.9°
Maximum altitude 02:58:06 56° 287° (WNW) 549 2.5 -9.4°
Drops below altitude 10° 03:01:33 10° 7° (N) 1,602 5.2 -9.0°
Sets 03:03:39 0° 12° (NNE) 2,477 6.3 -8.7°
